Zurück zum Katalog

THOR ABLESTAR DEB

AktivLEO
NORAD 48811·DEBRIS·🇺🇸 United States

Gestartet Jun 29, 1961 von Cape Canaveral Space Force Station

Loading…

Nächste Überflüge (nächste 24 Stunden)

TLE

AktuellSource: Space-Track

Epoche: Sep 13, 2026, 03:05 UTC

1 48811U 61015MP  26256.12902972  .00000213  00000-0  26564-3 0  9990
2 48811  67.0599 145.3675 0096607  81.0244 280.1751 13.79927977644760

Verfolge THOR ABLESTAR DEB in Echtzeit mit AllMySat

Download on the App Store